Regional Weather Roundup
Issued by NWS

Home | Current Version | Previous Version | Graphics & Text | Print | Product List | Glossary On
Versions: 1 2 3 4 5 6 7 8 9 10 11 12 13 14 15 16 17 18 19 20 21 22 23 24 25 26 27 28 29 30 31 32 33 34 35 36 37 38 39 40 41 42 43 44 45 46 47 48 49 50
000
ASUS43 KOAX 131010
RWRNE

WEATHER ROUNDUP FOR NEBRASKA
NATIONAL WEATHER SERVICE OMAHA NE
400 AM CST SAT FEB 13 2016

NOTES: SATELLITE DATA IS BEING USED TO AUGMENT CLOUD COVER ABOVE
       12000 FEET.
       "FAIR" INDICATES FEW OR NO CLOUDS BELOW 12,000 FEET WITH NO
       SIGNIFICANT WEATHER AND/OR OBSTRUCTIONS TO VISIBILITY.

  * THESE STATIONS DO NOT REPORT WEATHER SUCH AS RAIN...SNOW OR FOG.

NEZ001>004-019>022-054>056-131100-
NEBRASKA PANHANDLE

CITY           SKY/WX    TMP DP  RH WIND       PRES   REMARKS
SCOTTSBLUFF    CLOUDY    33  30  88 SE12      30.14F WCI  24
ALLIANCE       CLOUDY    30  29  96 S20       30.15F WCI  17
CHADRON        CLOUDY    34  29  82 S15       30.14F WCI  24
KIMBALL        FOG       30  30 100 S13       30.15F VSB 1/2 WCI  20
SIDNEY         CLOUDY    30  30 100 S15       30.18F FOG     WCI  19
$$

NEZ057>060-069>072-079>082-131100-
SOUTHWEST NEBRASKA

CITY           SKY/WX    TMP DP  RH WIND       PRES   REMARKS
NORTH PLATTE   CLOUDY    22  19  89 S10       30.33F WCI  11
IMPERIAL       CLOUDY    28  27  96 S18       30.28F WCI  15
LEXINGTON      CLOUDY    21  16  81 SE12      30.41F WCI   9
MCCOOK         CLOUDY    23  21  92 SE10      30.38F FOG     WCI  12
OGALLALA       CLOUDY    30  28  94 S14       30.27F FOG     WCI  19
$$

NEZ005>010-023>029-035>040-094-131100-
NORTH CENTRAL NEBRASKA

CITY           SKY/WX    TMP DP  RH WIND       PRES   REMARKS
VALENTINE      CLOUDY    22  17  81 SE20      30.31F WCI   7
AINSWORTH      CLOUDY    21  16  81 SE16      30.35F WCI   7
BROKEN BOW     CLOUDY    19  16  88 SE12G22   30.40F WCI   7
O`NEILL        LGT SNOW  14  10  85 SE12      30.47F WCI   0
ORD            CLOUDY    16  10  77 SE9       30.47R WCI   4
THEDFORD       CLOUDY    24  22  91 S10G18    30.32F WCI  14
$$

NEZ041-046>049-061>064-073>077-083>087-131100-
SOUTH CENTRAL NEBRASKA

CITY           SKY/WX    TMP DP  RH WIND       PRES   REMARKS
GRAND ISLAND   CLOUDY    16   8  71 SE10      30.51F WCI   4
AURORA         CLOUDY    16   8  71 E9        30.51F WCI   4
HASTINGS       CLOUDY    16   9  74 E9        30.49S WCI   4
HEBRON         CLOUDY    18   9  68 E9        30.55F WCI   6
HOLDREGE       CLOUDY    19  16  85 SE9       30.44F WCI   9
KEARNEY *      CLOUDY    18  10  73 SE12      30.46F WCI   5
YORK           CLOUDY    16   7  67 E9        30.54F WCI   4
$$

NEZ011>018-030>034-042>045-131100-
NORTHEAST NEBRASKA

CITY           SKY/WX    TMP DP  RH WIND       PRES   REMARKS
NORFOLK        CLOUDY    11   1  64 SE7       30.54F WCI   0
ALBION         CLOUDY    14   7  73 SE7       30.53R WCI   4
BLAIR          CLOUDY     9  -1  64 E3        30.60S
COLUMBUS *     CLOUDY    12  -2  52 E7        30.57S WCI   2
FREMONT        CLOUDY     9  -5  54 CALM      30.61S
TEKAMAH        CLOUDY     8  -3  61 E3        30.63S
WAYNE          CLOUDY     7  -3  62 SE5       30.58S WCI  -2
$$

NEZ050>053-065>068-078-088>093-131100-
SOUTHEAST NEBRASKA

CITY           SKY/WX    TMP DP  RH WIND       PRES   REMARKS
LINCOLN        CLOUDY    14   4  64 NE6       30.61S WCI   5
OMAHA EPPLEY   CLOUDY    10  -1  61 CALM      30.65R
BEATRICE       CLOUDY    17   6  62 E5        30.58R WCI   9
FALLS CITY     CLOUDY    15   3  59 NE8       30.61R WCI   4
NEBRASKA CITY  CLOUDY    13   0  57 NE8       30.60S WCI   1
PLATTSMOUTH    CLOUDY    10  -1  61 NE7       30.60F WCI   0
$$

NEZ044-045-051>053-067-131100-
OMAHA AREA

CITY           SKY/WX    TMP DP  RH WIND       PRES   REMARKS
OMAHA EPPLEY   CLOUDY    10  -1  61 CALM      30.65R
BLAIR          CLOUDY     9  -1  64 E3        30.60S
FREMONT        CLOUDY     9  -5  54 CALM      30.61S
MILLARD        CLOUDY    13   0  58 CALM      30.63S
OFFUTT AFB     CLOUDY    10  -1  60 E6        30.62S WCI   1
PLATTSMOUTH    CLOUDY    10  -1  61 NE7       30.60F WCI   0
WAHOO          CLOUDY    11   1  62 NE8       30.60F WCI  -1
$$



USA.gov is the U.S. government's official web portal to all federal, state and local government web resources and services.